User: anonymous
Location: Caltech
(34.1382°N, 118.1253°W)
Time: 02:49:38
(UTC-07:00)
Language:

RESURS DK-1 - Orbit

View from above orbital plane
View from above orbital plane
View from above satellite
View from above satellite

Ground track
Ground track

The orbit data is extracted from the following two-line orbital elements,

1 29228U 06021A   14213.24603448  .00000283  00000-0  29873-4 0   924
2 29228 069.9361 249.7645 0004361 190.2050 236.7894 15.00735654450337
Epoch (UTC): 01 August 2014 05:54:17
Eccentricity: 0.0004361
inclination: 69.9361°
perigee height: 561 km
apogee height: 567 km
right ascension of ascending node: 249.7645°
argument of perigee: 190.2050°
revolutions per day: 15.00735654
mean anomaly at epoch: 236.7894°
orbit number at epoch: 45033

The dashed part of the orbit path shows where the satellite is in the earth's shadow,  

DLR